Theta_e
341 337 327 322 309 310 306 311 321 319 319 325 324 325 325 331 323 307 342 345 348 347 352 349 356 353 354 353 353 354 356 358 358 358 358 358 358 357 357 356 356 355 354 352 352 351 351 351 351
333 331 318 310 305 300 304 316 316 320 324 327 326 326 329 327 336 337 337 347 347 347 348 347 354 354 353 351 354 356 355 357 357 358 357 357 356 356 355 355 353 352 351 350 350 349 350 350 350
323 318 309 303 303 301 303 316 321 322 323 322 322 329 333 330 337 338 343 347 347 345 348 346 353 353 352 352 353 354 355 357 356 356 357 357 356 355 355 354 352 351 349 349 349 349 349 350 349
317 310 305 301 299 302 312 318 322 321 320 323 325 325 336 343 341 342 347 347 344 343 345 349 352 351 352 351 352 353 354 355 356 356 356 356 355 354 353 352 351 350 350 350 350 349 350 350 350
306 304 297 300 307 315 320 322 322 318 321 323 326 328 332 341 344 344 344 345 344 342 344 347 351 351 351 352 352 353 354 357 356 356 356 355 354 353 352 351 351 352 352 352 351 353 355 353 353
300 300 297 301 308 319 321 322 321 320 325 329 329 329 331 341 339 341 344 343 345 344 344 346 350 351 352 352 353 354 355 354 355 355 354 354 353 352 352 353 353 353 353 353 353 355 355 354 354
298 295 293 304 310 317 319 324 319 317 319 326 332 326 332 338 342 342 342 344 344 345 344 344 347 350 353 354 354 353 353 355 355 354 354 353 353 353 353 353 354 354 355 356 356 356 356 355 355
298 297 293 305 311 311 321 319 318 321 323 331 332 325 327 339 344 343 341 340 339 340 340 341 343 345 346 348 353 353 352 352 353 353 353 353 353 353 354 355 354 354 355 357 357 357 357 356 356
297 292 290 293 310 312 319 314 324 326 321 325 330 330 339 343 342 340 339 339 339 331 327 333 338 339 342 345 348 352 352 352 352 352 352 353 347 345 345 347 350 352 356 358 358 359 358 358 358
294 291 293 304 315 316 318 318 321 322 320 320 325 339 340 341 336 329 329 324 323 320 321 321 331 333 337 344 344 343 346 345 345 345 344 343 342 343 347 347 348 347 349 350 351 351 351 348 348
292 296 309 320 319 321 319 319 323 320 315 318 320 322 324 323 321 319 317 317 315 316 316 317 319 323 331 337 338 339 342 341 342 342 340 340 340 340 341 340 339 340 343 340 340 339 339 337 338
296 303 320 322 323 318 319 322 314 316 314 319 319 320 319 316 315 314 313 313 314 314 314 316 317 320 323 332 337 335 334 335 334 330 331 337 338 338 337 337 338 339 339 337 338 338 339 339 339
291 313 322 321 321 320 318 313 310 310 315 317 317 316 314 313 312 313 313 313 312 311 312 314 316 318 322 328 330 326 324 322 323 324 326 330 334 334 331 329 329 329 329 330 332 332 333 335 337
296 319 321 320 318 314 309 309 312 309 313 312 312 311 312 312 311 310 310 310 310 311 311 313 314 316 320 321 320 319 318 318 319 319 319 321 323 324 321 321 321 322 323 323 326 326 327 329 334
317 313 316 317 315 313 316 309 307 309 310 309 309 309 309 311 312 312 310 309 311 313 311 312 315 314 315 317 317 316 316 317 317 318 319 319 318 317 317 316 317 318 319 320 321 321 323 327 324
310 310 306 312 313 313 313 307 305 308 308 306 308 308 308 309 310 311 311 313 312 310 310 311 313 313 314 314 314 314 314 315 315 316 316 317 317 317 315 314 315 316 317 315 315 317 316 322 317
298 301 302 308 313 312 307 302 306 308 307 305 305 306 307 307 309 310 311 309 309 309 309 309 310 311 313 313 312 311 312 313 312 312 312 312 313 314 312 311 312 313 311 311 310 313 313 316 312
294 301 296 307 313 309 305 305 305 307 307 304 304 305 305 305 307 310 309 310 309 308 308 308 309 310 311 312 311 310 310 311 310 310 309 311 310 310 309 308 308 308 306 305 306 307 310 312 308
291 304 299 307 311 308 305 305 303 305 304 302 302 302 303 305 309 310 310 309 310 312 309 314 310 309 311 310 310 308 308 309 308 307 308 307 308 310 307 305 304 304 303 302 303 303 305 305 306
290 290 294 293 306 310 304 303 302 303 303 302 301 300 302 302 304 307 307 306 306 307 307 309 310 312 311 308 308 308 308 306 306 304 305 306 306 305 305 306 302 301 300 300 300 300 301 301 303
289 288 288 290 299 301 300 297 300 302 302 302 302 301 301 302 301 303 303 304 305 306 306 306 306 307 309 309 309 308 310 308 305 303 303 304 304 303 303 302 300 299 299 298 298 298 297 295 299
289 294 293 297 295 290 301 290 295 299 298 300 299 299 299 300 302 302 302 301 302 304 305 304 304 305 305 305 304 303 301 299 299 299 300 301 302 302 302 301 300 299 298 297 298 297 296 296 293
294 297 293 297 295 292 292 289 292 299 295 298 298 298 299 300 301 301 300 301 302 303 302 302 302 302 302 302 301 300 298 298 299 299 298 298 299 301 301 300 299 298 297 297 297 296 295 295 294
300 293 291 289 288 283 290 293 288 293 300 303 299 298 299 299 300 300 301 301 301 302 302 302 302 301 302 301 301 299 298 298 297 297 297 297 297 298 299 299 298 298 298 297 296 295 294 293 293
293 287 282 282 283 283 290 291 292 296 300 303 298 297 298 299 299 299 299 299 300 300 300 302 301 300 301 301 301 300 299 298 298 297 297 297 297 297 297 298 297 297 298 297 296 295 294 293 292
291 290 284 280 280 284 290 287 291 293 295 297 299 298 298 298 299 298 299 299 299 300 299 300 300 299 300 300 300 300 299 297 297 298 297 296 297 298 298 298 298 298 298 297 296 295 295 294 293
293 287 290 286 284 282 284 289 292 293 293 296 296 296 295 297 298 298 300 300 299 299 299 300 300 299 299 299 299 299 299 298 297 297 297 296 297 300 299 299 297 297 297 296 296 294 294 294 293
297 299 289 286 280 279 283 286 286 289 289 292 293 293 294 297 297 298 300 298 298 299 300 300 301 300 299 300 299 299 298 299 299 298 296 296 296 297 299 298 297 296 296 296 295 294 294 293 292
298 295 293 289 287 281 281 285 293 291 290 291 291 293 295 294 295 296 297 298 298 299 300 301 301 302 301 302 301 300 298 299 298 297 296 295 296 296 297 297 297 296 295 295 294 294 295 293 292
303 299 295 292 290 289 287 286 291 290 290 291 291 294 295 295 294 296 297 297 297 299 299 299 300 302 301 302 300 300 298 298 296 295 295 296 295 296 297 298 296 296 296 295 295 294 294 292 290
Wind_Speed
5 5 1 3 5 6 3 2 2 4 6 6 3 3 8 4 0 3 5 4 12 8 8 13 13 14 13 12 14 13 12 12 12 12 13 13 12 11 10 9 7 8 9 7 8 8 7 6 6
4 3 2 2 6 4 3 1 12 4 4 5 6 4 4 4 3 8 5 9 8 7 7 12 14 13 13 13 11 12 12 12 12 12 12 11 10 9 8 7 6 6 7 5 7 6 5 5 4
3 0 4 5 3 3 4 3 5 3 3 4 3 5 3 3 6 8 8 10 8 6 6 11 14 12 14 13 11 11 11 11 11 12 11 10 9 7 6 5 4 4 4 4 5 5 4 4 4
1 5 5 6 2 3 4 5 6 1 1 7 4 7 5 3 6 8 13 12 10 6 5 12 14 14 14 14 13 11 11 11 11 11 11 9 7 5 4 2 3 4 5 5 5 3 5 4 4
4 3 5 3 3 3 3 7 4 5 4 6 3 3 3 4 13 15 13 10 11 6 4 10 13 12 13 13 13 11 9 9 9 8 8 6 5 3 0 2 5 6 8 8 7 7 6 7 5
4 4 5 1 4 3 4 4 1 3 5 5 6 3 3 8 11 10 10 8 9 7 4 8 12 12 11 12 11 9 8 6 5 6 5 4 2 1 2 4 7 9 10 10 10 9 8 9 8
7 5 4 4 4 4 5 2 2 4 5 6 4 3 3 3 9 10 10 8 9 6 4 3 6 8 9 8 8 8 6 5 5 3 2 2 3 3 5 6 8 10 10 11 11 9 10 8 12
6 6 4 4 6 5 2 3 2 6 5 1 4 4 6 7 13 12 10 8 8 6 4 3 4 3 3 0 6 5 5 4 2 3 3 4 5 6 7 9 9 12 12 13 13 12 10 10 11
4 6 4 6 8 5 4 3 3 2 7 5 5 2 13 16 15 13 10 8 7 7 6 4 2 2 1 1 2 3 5 4 4 4 5 5 3 5 8 10 14 14 14 14 13 12 12 11 8
5 5 10 7 7 7 7 5 6 4 5 3 6 13 16 13 11 10 10 8 8 5 5 5 5 4 2 2 2 1 2 2 2 3 4 3 4 4 7 9 13 12 11 10 10 10 9 9 3
5 7 6 4 6 12 11 4 3 8 3 1 6 10 13 15 13 12 9 8 5 4 5 6 6 5 4 1 1 1 1 0 2 3 3 3 3 3 3 3 4 5 11 5 8 7 5 6 4
4 5 4 2 7 7 13 6 5 3 4 8 9 9 11 15 13 10 9 7 6 7 7 7 7 6 5 3 3 4 3 3 3 4 5 3 2 3 4 4 6 6 6 8 7 5 7 8 7
3 4 2 6 8 7 9 5 7 5 9 12 12 13 13 13 12 9 8 7 7 8 8 8 7 6 5 6 5 6 6 5 5 5 6 5 5 6 5 6 6 6 6 7 7 7 7 8 9
1 5 6 5 6 6 9 4 6 3 9 12 12 11 11 12 9 8 7 5 7 5 6 6 8 7 6 7 8 6 5 5 6 6 7 8 5 5 5 5 6 6 6 6 6 6 7 7 8
4 6 7 3 2 5 11 1 3 12 9 11 11 10 10 9 7 6 5 6 5 3 4 6 6 7 7 6 7 6 6 7 6 6 9 9 8 7 5 5 5 5 5 7 6 6 6 6 7
6 6 4 3 2 3 2 8 6 10 13 10 11 9 9 7 7 5 6 5 4 4 6 5 6 6 7 7 6 6 6 7 7 7 7 10 9 8 6 5 6 6 6 6 6 7 6 6 7
6 3 2 1 4 4 3 6 9 10 12 11 8 8 8 8 6 5 6 6 5 6 6 8 7 7 7 7 7 8 9 8 8 7 7 10 10 9 6 6 6 7 6 7 7 6 6 6 8
7 4 2 6 13 6 4 11 10 12 10 12 10 8 8 7 5 6 6 5 6 6 6 6 5 6 6 4 6 7 8 8 7 7 7 9 8 10 7 7 8 7 7 8 8 7 7 6 9
6 5 5 6 2 7 13 9 9 11 6 10 10 10 9 8 5 5 4 5 6 5 6 5 6 4 3 3 3 4 6 7 7 7 10 10 9 10 8 7 8 8 9 9 10 6 6 7 10
4 4 6 5 3 11 8 14 3 10 8 8 12 10 11 8 7 6 5 5 6 4 6 6 5 5 4 3 2 3 3 6 6 6 8 9 10 10 9 8 8 9 7 10 11 10 4 5 9
5 7 6 9 3 4 6 7 5 6 5 8 8 10 10 14 11 7 6 6 5 5 6 6 6 6 5 5 5 4 4 3 5 6 6 7 9 9 9 9 8 8 7 8 9 10 11 7 5
4 11 9 9 7 7 9 7 6 9 8 10 12 12 14 11 8 7 6 5 6 5 6 6 6 6 6 5 7 8 6 7 3 4 4 6 8 8 9 9 8 7 6 8 9 9 9 7 9
11 6 10 9 11 5 2 1 8 11 8 16 18 16 15 13 13 11 8 8 6 6 6 6 6 6 6 7 8 8 9 6 3 3 6 6 6 6 8 7 7 7 6 7 9 9 9 7 7
6 4 6 5 5 2 11 12 5 8 19 25 12 17 19 15 13 10 7 7 6 6 6 5 7 5 5 7 8 9 9 6 5 4 4 4 3 4 6 7 6 5 5 6 6 7 9 8 6
3 6 3 4 1 7 4 7 9 8 5 8 19 21 19 16 14 12 11 9 8 7 7 6 7 6 5 6 7 7 7 7 6 4 3 3 2 3 4 4 5 4 4 4 4 5 7 8 7
6 9 7 6 4 6 6 7 6 7 9 8 16 18 18 16 14 12 12 9 8 7 6 8 6 7 7 5 5 5 6 4 3 4 3 3 2 1 2 4 4 5 6 5 5 4 4 6 5
1 4 4 3 3 2 4 5 2 11 12 10 16 18 18 16 14 13 10 8 7 6 7 8 8 5 7 7 5 6 4 6 5 4 3 3 3 2 3 4 5 6 6 5 4 4 4 6 6
3 1 1 3 4 6 3 4 6 5 3 4 12 14 16 15 11 10 10 5 7 6 6 6 6 7 6 6 3 4 6 5 5 4 4 4 3 3 3 3 4 5 4 4 5 5 5 7 7
1 2 4 5 1 3 2 6 3 7 7 9 6 11 15 13 11 9 7 6 7 6 6 7 8 9 9 8 6 6 6 5 5 5 4 3 3 4 3 2 4 4 4 4 5 6 7 8 9
1 2 6 5 4 1 2 7 4 6 11 12 11 12 10 11 10 11 10 8 6 8 7 6 5 6 4 5 6 7 5 5 6 4 4 2 4 3 3 0 3 4 4 5 4 5 6 7 9
Wind_Direction
136 133 25 37 59 64 19 22 215 356 23 339 43 87 125 62 19 191 106 126 130 139 152 143 135 130 124 129 124 121 116 117 117 114 109 107 106 103 98 93 92 87 83 78 72 70 63 61 51
134 144 66 94 78 63 290 168 158 244 331 281 121 107 73 82 86 125 115 128 117 129 135 147 138 135 134 137 132 130 129 127 123 119 115 111 106 101 94 85 78 70 66 50 56 45 49 44 34
167 314 66 78 94 136 175 197 185 205 275 351 94 77 86 91 116 145 124 123 107 108 128 150 140 146 142 142 142 136 140 136 131 125 119 115 108 97 84 72 49 32 28 16 41 19 359 6 1
102 10 28 72 302 230 199 245 194 54 322 69 122 88 87 179 155 134 133 126 117 113 122 148 149 150 149 152 154 150 148 148 144 140 134 129 118 109 93 49 352 345 336 338 350 350 317 324 323
33 58 65 64 287 250 250 251 251 144 66 27 42 83 59 41 103 123 126 126 129 116 154 149 154 154 155 157 161 160 156 151 151 144 137 137 130 128 106 323 313 316 318 321 326 318 312 309 305
44 94 68 201 258 245 264 234 154 37 91 70 68 48 40 104 112 123 115 107 124 127 111 152 157 162 163 166 168 170 164 159 152 152 150 155 161 222 282 303 308 311 312 312 311 307 307 303 297
126 91 186 175 223 280 216 64 91 127 81 49 22 68 44 103 104 96 89 91 110 86 89 59 147 169 171 171 177 181 180 175 158 170 183 212 261 279 295 298 296 296 299 300 297 295 296 296 295
115 96 121 214 198 246 50 72 13 51 58 23 28 179 174 136 111 94 87 83 78 75 67 53 49 38 44 352 192 196 207 205 216 233 252 277 287 299 302 296 298 302 295 290 288 290 289 290 286
131 78 182 213 170 224 155 116 14 108 80 39 343 264 117 120 114 109 110 105 92 63 34 18 55 50 21 284 282 217 241 237 257 288 314 322 327 329 323 319 318 315 305 301 301 302 305 298 290
102 135 207 203 174 173 149 128 132 109 102 72 60 88 109 119 108 110 118 104 81 42 36 27 41 0 270 256 199 249 252 319 342 344 344 334 335 325 333 339 344 352 1 359 349 344 339 335 325
187 181 203 241 173 149 138 101 109 122 116 264 141 115 100 91 79 81 72 72 81 55 42 23 27 24 30 261 284 223 236 302 14 1 344 320 331 335 355 7 17 7 13 14 6 6 10 3 350
168 254 156 151 155 134 140 114 85 42 94 101 100 107 102 92 86 76 61 48 41 43 32 28 24 25 31 45 57 47 51 57 58 50 25 36 53 43 46 46 28 18 5 7 4 358 354 0 5
201 196 109 82 92 85 80 78 116 79 105 101 102 89 93 91 87 79 80 60 49 38 15 19 29 28 24 48 50 55 53 54 47 38 36 38 49 54 45 39 34 23 5 7 5 353 354 353 355
145 81 78 52 86 72 107 133 76 172 126 106 106 100 98 99 105 99 74 73 59 56 28 5 37 27 36 55 56 55 54 48 57 52 38 41 50 60 51 44 35 23 6 358 3 358 349 347 350
69 82 51 29 96 106 106 349 209 142 130 114 108 108 102 102 95 92 103 88 73 50 66 25 45 40 48 57 66 60 51 51 48 50 47 47 46 49 53 49 38 19 6 1 358 2 354 351 349
68 55 92 285 103 148 115 235 140 148 139 134 126 120 109 94 104 100 92 86 57 64 46 61 62 65 68 64 63 64 52 55 45 46 42 43 43 38 44 43 32 13 20 12 1 2 353 1 348
20 164 173 142 213 146 155 252 158 160 153 150 142 132 127 113 97 88 84 87 64 55 45 35 29 48 70 73 78 70 61 56 48 41 39 35 32 31 36 34 23 19 20 22 4 354 2 360 345
189 169 228 211 200 195 189 257 158 173 169 160 151 149 143 140 131 118 105 92 77 65 62 59 51 47 61 64 73 72 67 62 52 49 45 36 38 31 35 34 32 29 28 22 8 358 2 16 336
143 151 178 256 155 148 220 248 185 182 170 159 162 158 152 141 146 125 115 98 91 74 81 78 82 57 76 53 68 65 79 77 60 49 44 43 40 42 39 38 33 28 37 27 15 349 6 14 353
136 141 226 310 194 178 201 244 180 176 201 180 166 161 158 140 141 135 100 75 61 68 55 57 67 72 89 97 92 102 104 78 75 64 49 47 52 39 52 38 35 31 39 34 27 23 359 14 19
173 166 199 206 107 50 102 306 199 208 143 152 178 164 153 154 153 140 130 123 107 80 64 60 54 61 63 88 107 99 95 70 59 46 54 31 43 50 49 49 48 40 44 44 38 30 33 20 11
244 205 191 158 129 207 175 253 252 193 178 193 176 166 161 159 141 140 138 131 127 115 85 71 63 68 62 64 82 89 92 93 71 75 63 52 40 45 51 50 50 48 49 49 40 33 35 28 28
225 168 180 168 193 124 179 156 251 151 202 213 191 173 164 163 153 154 160 154 144 130 117 109 95 86 89 90 92 93 90 90 95 78 72 54 43 40 52 48 47 45 45 50 50 42 38 38 46
247 106 53 59 117 200 208 192 235 186 210 219 165 171 162 156 152 155 148 141 136 128 121 113 102 88 81 89 90 96 99 96 85 70 67 55 44 36 37 42 42 39 40 47 48 45 45 41 47
119 74 321 321 343 230 213 182 235 237 258 221 182 165 157 153 153 155 153 155 149 147 139 132 118 100 83 88 92 98 98 95 95 82 70 63 51 43 32 37 34 32 35 53 59 47 44 34 34
188 164 169 243 223 264 96 226 245 289 273 294 146 151 144 148 157 158 162 160 153 149 152 125 128 124 109 91 95 97 102 93 85 98 96 78 60 100 66 62 42 30 34 39 35 30 31 33 26
181 177 199 171 33 80 219 293 69 21 16 107 137 146 147 151 157 159 156 157 144 150 159 142 141 127 119 125 130 116 107 101 104 96 87 66 55 81 85 74 48 37 43 45 16 17 10 13 13
139 327 307 17 197 226 278 294 257 4 61 101 146 147 145 150 145 148 149 151 132 164 149 133 137 137 140 116 109 129 119 113 113 94 74 79 61 56 87 65 44 39 42 30 21 7 6 6 5
335 24 48 110 71 189 293 263 223 269 171 151 133 151 148 143 139 132 126 132 139 144 145 146 155 160 154 140 142 143 112 111 96 78 74 59 74 56 79 58 26 12 16 2 8 359 3 0 354
72 185 127 129 264 160 114 275 337 169 153 143 145 151 137 131 133 140 137 135 135 146 143 140 147 150 136 156 148 132 121 114 99 83 75 61 59 58 58 50 13 354 349 347 341 347 346 350 348